Mt. Clemens, MI

4:03 AM EDT on June 24, 2017 (GMT -0400)
Selfridge Angb

Weather History for KMTC - November, 2012

Change the Weather History Date:

Tuesday, November 6, 2012

  Actual Average Record
Temperature  
Mean Temperature 36 °F -  
Max Temperature 41 °F 49 °F 69 °F (1975)
Min Temperature 30 °F 34 °F 21 °F (1962)
Degree Days  
Heating Degree Days 30    
Moisture  
Dew Point 28 °F    
Average Humidity 68    
Maximum Humidity 80    
Minimum Humidity 60    
Precipitation  
Precipitation 0.00 in - - ()
Sea Level Pressure  
Sea Level Pressure 30.09 in    
Wind  
Wind Speed 8 mph (East)    
Max Wind Speed 15 mph    
Max Gust Speed -    
Visibility 12 miles    
Events      
Averages and records for this station are not official NWS values.
T = Trace of Precipitation, MM = Missing Value Source: NWS Daily Summary

Daily Weather History Graph

Daily Weather History Graph

Search for Another Location

Airport or City:

Trip Planner

Search our weather history database for the weather conditions in past years. The results will help you decide how hot, cold, wet, or windy it might be!

Date:

Astronomy

Nov. 06, 2012 Rise Set
Actual Time 7:11 AM EST 5:17 PM EST
Civil Twilight 6:42 AM EST 5:47 PM EST
Nautical Twilight 6:08 AM EST 6:20 PM EST
Astronomical Twilight 5:35 AM EST 6:53 PM EST
Moon 11:56 PM EST (11/6) 1:02 PM EST (11/6)
Length of Visible Light 11h 04m
Length of Day
10h 05m
Waning Gibbous, 53% of the Moon is Illuminated
Nov 6
Waning Gibbous
Nov 6
Last Quarter
Nov 13
New
Nov 20
First Quarter
Nov 28
Full

Hourly Weather History & Observations

Time (EST) Temp. Windchill Dew Point Humidity Pressure Visibility Wind Dir Wind Speed Gust Speed Precip Events Conditions
4:14 AM 35.6 °F 29.9 °F 28.4 °F 75% 30.12 in 12.0 mi ESE 6.9 mph - N/A   Overcast
4:55 AM 35.6 °F 30.7 °F 28.4 °F 75% 30.15 in 12.0 mi East 5.8 mph - N/A   Mostly Cloudy
5:55 AM 33.8 °F 27.7 °F 24.8 °F 70% 30.14 in 12.0 mi ESE 6.9 mph - N/A   Scattered Clouds
6:55 AM 30.2 °F 24.3 °F 24.8 °F 80% 30.14 in 12.0 mi ESE 5.8 mph - N/A   Partly Cloudy
7:55 AM 33.8 °F 27.0 °F 24.8 °F 70% 30.14 in 12.0 mi East 8.1 mph - N/A   Partly Cloudy
8:55 AM 37.4 °F 32.8 °F 24.8 °F 60% 30.15 in 12.0 mi East 5.8 mph - N/A   Mostly Cloudy
9:55 AM 37.4 °F 31.4 °F 24.8 °F 60% 30.14 in 12.0 mi NE 8.1 mph - N/A   Overcast
10:55 AM 37.4 °F 31.4 °F 26.6 °F 65% 30.14 in 12.0 mi East 8.1 mph - N/A   Overcast
11:23 AM 39.2 °F 34.2 °F 26.6 °F 61% 30.09 in 12.0 mi East 6.9 mph - N/A   Overcast
11:55 AM 39.2 °F 35.0 °F 26.6 °F 61% 30.12 in 12.0 mi East 5.8 mph - N/A   Overcast
12:55 PM 39.2 °F 32.5 °F 30.2 °F 70% 30.09 in 12.0 mi ESE 10.4 mph - N/A   Overcast
1:55 PM 41.0 °F 35.2 °F 30.2 °F 65% 30.08 in 12.0 mi ESE 9.2 mph - N/A   Overcast
2:28 PM 41.0 °F 33.1 °F 30.2 °F 65% 30.01 in 12.0 mi ESE 15.0 mph - N/A   Mostly Cloudy
2:55 PM 41.0 °F 35.2 °F 30.2 °F 65% 30.06 in 12.0 mi ESE 9.2 mph - N/A   Mostly Cloudy
3:55 PM 39.2 °F 33.6 °F 30.2 °F 70% 30.05 in 12.0 mi ESE 8.1 mph - N/A   Overcast
4:55 PM 39.2 °F 34.2 °F 30.2 °F 70% 30.05 in 12.0 mi ESE 6.9 mph - N/A   Overcast
5:55 PM 39.2 °F 33.0 °F 28.4 °F 65% 30.04 in 12.0 mi East 9.2 mph - N/A   Mostly Cloudy
6:55 PM 39.2 °F 30.8 °F 30.2 °F 70% 30.05 in 12.0 mi East 15.0 mph - N/A   Mostly Cloudy
7:55 PM 37.4 °F 29.8 °F 30.2 °F 75% 30.05 in 12.0 mi East 11.5 mph - N/A   Mostly Cloudy
8:55 PM 37.4 °F 28.9 °F 28.4 °F 70% 30.05 in 12.0 mi East 13.8 mph - N/A   Mostly Cloudy
9:55 PM 37.4 °F 28.5 °F 26.6 °F 65% 30.05 in 12.0 mi East 15.0 mph - N/A   Mostly Cloudy
10:55 PM 35.6 °F 26.6 °F 24.8 °F 65% 30.04 in 12.0 mi East 13.8 mph - N/A   Mostly Cloudy